Torna al catalogo

KINEIS-1D

AttivoComunicazioniSSO
NORAD 60082·PAYLOAD·🇫🇷 France

Lanciato Jun 20, 2024 da Rocket Lab Launch Complex 1

Loading…

Prossimi Passaggi (prossime 24 ore)

TLE

AggiornatoSource: Space-Track

Epoca: Sep 14, 2026, 12:08 UTC

1 60082U 24114D   26257.50616565  .00000399  00000-0  64741-4 0  9991
2 60082  97.9874 276.6730 0000132 143.4573 216.6645 14.76421704120308

Traccia KINEIS-1D in tempo reale con AllMySat

Download on the App Store